Showing default

POLYITAN 1, 40042

Orbit data source: Space-Track

POLYITAN 1, 40042 is a payload satellite owned by Kyiv Polytechnic (UA) in SSO that was launched on Thu, 19 Jun 2014 UTC via a DNEPR launch vehicle from the Orenburg, Russia (OREN). Payload-class satellites include a variety of spacecraft equipped with specific instruments for various scientific and technological missions. These include communications satellites like Starlink; space stations such as the ISS; scientific satellites like the Hubble; Earth observation satellites from companies like Planet Labs, Umbra, and HawkEye 360; GPS; miniature CubeSats for education and research; and military/defense satellites.

Loading next visibility...
Identifier
40042, 2014-033AJ
Orbit
SSO
Country
Flag of UAUA / UKR
Related business
Manufacturer
Kyiv Polytechnic
Mission
Operational Commercial Technology
Bus & Motor
CUBESAT 1U, Unknown motor
Mass
1 kg wet, 1 kg dry
Launch date (UTC)
2014-06-19 (11 years ago)
Launch vehicle
DNEPR
Launch site
Orenburg, Russia (OREN)
Object type
Payload
Rocket body
Debris
Shape & HBR
Box, 0.1 m
Radar Cross Section
0.015 m², Small (<0.1 m²)

Expand to show TLE details & history
Last TLE update: 7 hours ago

TLE from 7 hours ago
0 POLYITAN 1
1 40042U 14033AJ  25295.15266747  .00022899  00000-0  97180-3 0  9990
2 40042  98.1094 295.5315 0006354 252.6521 107.4019 15.23093494617235
Epoch: 2025-10-22T03:39Z
TLE epoch observation values (Epoch: 2025-10-22T03:39:50.469Z)
Latitude
-0.00002°
Longitude
-150.25916°
Altitude
500.899 km
Speed
7.613 km/s
True Right ascension
19h 42m 07s
True Declination
0° 00' 00"
Sunlit
Object was in daylight at epoch
Visualization orbit readout
Latitude
Unknown
Longitude
Unknown
Altitude
Unknown
Speed
Unknown
Apparent Right ascension
Unknown
Apparent Declination
Unknown
Sunlit
N/A
Visualization observer readout
Local Sidereal Time
05:18:17
Azimuth
Unknown
Elevation
Unknown
Doppler factor
Unknown
Orbital elements
Apogee altitude
497.876 km
Perigee altitude
489.143 km
Semi-major axis
6,871.647 km
Eccentricity
0.00064
Inclination
98.1094°
RAAN
295.5315°
Arg. of periapsis
252.6521°
True anomaly
107.47136°
Mean anomaly
107.4019°
Eccentric anomaly
107.43663°
Mean motion
3.81024 °/min
Orbital period
94.48 mins
BSTAR
0.0009718
Loading maneuver chart data...
Computing Atmospheric mass density...
Loading historical data...
Loading historical data...
Loading historical data...
Loading historical data...
Loading historical data...
Loading historical data...
Loading historical data...

Documentation

Showing up to 5 results
|